| time (UTC) | temp F | wind direction | speed MPH | gust MPH | rain 1hr in | rain 24hr in | rain mn in | humidity % | barometer mb |
| 20260508013043 | 54 | 166 | 1.0 | 5.0 | 0.00 | 0.33 | 0.21 | 74 | 1009.6 |
| 20260508012525 | 54 | 0 | 1.0 | 5.0 | 0.00 | 0.33 | 0.21 | 73 | 1009.5 |
| 20260508012023 | 54 | 0 | 0.0 | 4.0 | 0.00 | 0.33 | 0.21 | 72 | 1009.6 |
| 20260508011537 | 54 | 157 | 1.0 | 4.0 | 0.00 | 0.33 | 0.21 | 71 | 1009.4 |
| 20260508011022 | 54 | 154 | 0.0 | 3.0 | 0.00 | 0.33 | 0.21 | 70 | 1009.4 |
| 20260508010523 | 55 | 0 | 0.0 | 4.0 | 0.00 | 0.33 | 0.21 | 68 | 1009.5 |
| 20260508010050 | 55 | 0 | 0.0 | 5.0 | 0.00 | 0.33 | 0.21 | 67 | 1009.5 |
| 20260508005523 | 56 | 132 | 2.0 | 6.0 | 0.00 | 0.33 | 0.21 | 66 | 1009.4 |
| 20260508005023 | 56 | 170 | 2.0 | 8.0 | 0.00 | 0.33 | 0.21 | 64 | 1009.3 |
| 20260508004542 | 56 | 163 | 3.0 | 8.0 | 0.00 | 0.33 | 0.21 | 63 | 1009.4 |
| 20260508004021 | 56 | 177 | 3.0 | 8.0 | 0.00 | 0.33 | 0.21 | 62 | 1009.3 |
| 20260508003522 | 56 | 165 | 2.0 | 8.0 | 0.00 | 0.33 | 0.21 | 60 | 1009.2 |
| 20260508003041 | 56 | 0 | 0.0 | 0.0 | 0.00 | 0.33 | 0.21 | 57 | 1009.0 |
| 20260508002522 | 56 | 0 | 0.0 | 0.0 | 0.00 | 0.33 | 0.21 | 57 | 1009.0 |
| 20260508002024 | 56 | 0 | 0.0 | 0.0 | 0.00 | 0.33 | 0.21 | 56 | 1008.9 |
| 20260508001541 | 57 | 0 | 0.0 | 0.0 | 0.00 | 0.33 | 0.21 | 55 | 1008.8 |
| 20260508001024 | 57 | 0 | 0.0 | 0.0 | 0.00 | 0.33 | 0.21 | 54 | 1008.8 |
| 20260508000524 | 58 | 0 | 0.0 | 0.0 | 0.00 | 0.33 | 0.21 | 53 | 1008.7 |
| 20260508000041 | 58 | 0 | 0.0 | 0.0 | 0.00 | 0.33 | 0.21 | 52 | 1008.7 |
| 20260507235524 | 59 | 0 | 0.0 | 0.0 | 0.00 | 0.33 | 0.21 | 50 | 1008.7 |
| 20260507235025 | 60 | 0 | 0.0 | 0.0 | 0.00 | 0.33 | 0.21 | 48 | 1008.7 |
| 20260507234537 | 60 | 0 | 0.0 | 0.0 | 0.00 | 0.33 | 0.21 | 45 | 1008.7 |
| 20260507234021 | 60 | 0 | 0.0 | 0.0 | 0.00 | 0.33 | 0.21 | 46 | 1008.8 |
| 20260507233524 | 60 | 0 | 0.0 | 0.0 | 0.00 | 0.33 | 0.21 | 45 | 1008.6 |
| 20260507233035 | 60 | 0 | 0.0 | 0.0 | 0.00 | 0.33 | 0.21 | 46 | 1008.5 |
| 20260507232522 | 60 | 0 | 0.0 | 0.0 | 0.00 | 0.33 | 0.21 | 45 | 1008.5 |
| 20260507232022 | 60 | 0 | 0.0 | 0.0 | 0.00 | 0.33 | 0.21 | 45 | 1008.4 |
| 20260507231546 | 60 | 0 | 0.0 | 0.0 | 0.00 | 0.33 | 0.21 | 43 | 1008.2 |
| 20260507231023 | 61 | 0 | 0.0 | 0.0 | 0.00 | 0.33 | 0.21 | 42 | 1008.3 |
| 20260507230524 | 61 | 0 | 0.0 | 3.0 | 0.00 | 0.33 | 0.21 | 43 | 1008.3 |
| 20260507230044 | 62 | 0 | 0.0 | 3.0 | 0.00 | 0.33 | 0.21 | 42 | 1008.2 |
| 20260507225524 | 62 | 267 | 1.0 | 3.0 | 0.00 | 0.33 | 0.21 | 41 | 1008.3 |
| 20260507225024 | 62 | 0 | 0.0 | 2.0 | 0.00 | 0.33 | 0.21 | 41 | 1008.3 |
| 20260507224537 | 62 | 327 | 0.0 | 3.0 | 0.00 | 0.33 | 0.21 | 41 | 1008.2 |
| 20260507224024 | 63 | 0 | 0.0 | 4.0 | 0.00 | 0.33 | 0.21 | 41 | 1008.3 |
| 20260507223524 | 62 | 0 | 0.0 | 5.0 | 0.00 | 0.33 | 0.21 | 42 | 1008.3 |
| 20260507223035 | 62 | 310 | 1.0 | 5.0 | 0.00 | 0.33 | 0.21 | 40 | 1008.3 |
| 20260507222522 | 62 | 299 | 0.0 | 4.0 | 0.00 | 0.33 | 0.21 | 41 | 1008.4 |
| 20260507222024 | 63 | 308 | 1.0 | 4.0 | 0.00 | 0.33 | 0.21 | 39 | 1008.3 |
| 20260507221536 | 63 | 295 | 1.0 | 7.0 | 0.00 | 0.33 | 0.21 | 38 | 1008.4 |
| 20260507221022 | 63 | 273 | 1.0 | 7.0 | 0.00 | 0.33 | 0.21 | 39 | 1008.3 |
| 20260507220521 | 63 | 0 | 2.0 | 7.0 | 0.00 | 0.33 | 0.21 | 38 | 1008.4 |
| 20260507220043 | 64 | 302 | 1.0 | 9.0 | 0.00 | 0.33 | 0.21 | 37 | 1008.4 |
| 20260507215522 | 64 | 286 | 2.0 | 9.0 | 0.00 | 0.33 | 0.21 | 37 | 1008.4 |
| 20260507215022 | 64 | 299 | 0.0 | 4.0 | 0.00 | 0.33 | 0.21 | 38 | 1008.4 |
| 20260507214547 | 64 | 0 | 1.0 | 3.0 | 0.00 | 0.33 | 0.21 | 40 | 1008.4 |
| 20260507214024 | 64 | 326 | 1.0 | 6.0 | 0.00 | 0.33 | 0.21 | 40 | 1008.5 |
| 20260507213527 | 64 | 17 | 1.0 | 6.0 | 0.00 | 0.33 | 0.21 | 39 | 1008.6 |
| 20260507213043 | 64 | 71 | 2.0 | 8.0 | 0.00 | 0.33 | 0.21 | 36 | 1008.4 |
| 20260507212524 | 64 | 0 | 2.0 | 8.0 | 0.00 | 0.33 | 0.21 | 36 | 1008.3 |
| 20260507212022 | 64 | 269 | 1.0 | 4.0 | 0.00 | 0.33 | 0.21 | 38 | 1008.3 |
| 20260507211540 | 64 | 269 | 1.0 | 6.0 | 0.00 | 0.33 | 0.21 | 38 | 1008.3 |
| 20260507211021 | 64 | 62 | 1.0 | 6.0 | 0.00 | 0.33 | 0.21 | 39 | 1008.2 |
| 20260507210522 | 64 | 309 | 0.0 | 6.0 | 0.00 | 0.33 | 0.21 | 39 | 1008.3 |
| 20260507210046 | 63 | 0 | 0.0 | 7.0 | 0.00 | 0.33 | 0.21 | 40 | 1008.3 |
| 20260507205526 | 63 | 284 | 0.0 | 12.0 | 0.00 | 0.33 | 0.21 | 37 | 1008.2 |
| 20260507205022 | 64 | 259 | 6.0 | 12.0 | 0.00 | 0.33 | 0.21 | 37 | 1008.2 |
| 20260507204541 | 64 | 302 | 1.0 | 4.0 | 0.00 | 0.33 | 0.21 | 40 | 1008.2 |
| 20260507204022 | 64 | 290 | 1.0 | 4.0 | 0.00 | 0.33 | 0.21 | 38 | 1008.2 |
| 20260507203523 | 64 | 178 | 1.0 | 7.0 | 0.00 | 0.33 | 0.21 | 42 | 1008.1 |
| 20260507203043 | 64 | 236 | 0.0 | 7.0 | 0.00 | 0.33 | 0.21 | 40 | 1008.3 |
| 20260507202522 | 64 | 294 | 2.0 | 9.0 | 0.00 | 0.33 | 0.21 | 41 | 1008.2 |
| 20260507202022 | 63 | 267 | 3.0 | 12.0 | 0.00 | 0.33 | 0.21 | 39 | 1008.5 |
| 20260507201543 | 65 | 260 | 1.0 | 12.0 | 0.00 | 0.33 | 0.21 | 41 | 1008.3 |
| 20260507201024 | 65 | 0 | 1.0 | 5.0 | 0.00 | 0.33 | 0.21 | 41 | 1008.3 |
| 20260507200524 | 65 | 293 | 1.0 | 5.0 | 0.00 | 0.33 | 0.21 | 39 | 1008.5 |
| 20260507200037 | 64 | 0 | 0.0 | 13.0 | 0.00 | 0.33 | 0.21 | 38 | 1008.4 |
| 20260507195522 | 64 | 0 | 1.0 | 13.0 | 0.00 | 0.33 | 0.21 | 37 | 1008.4 |
| 20260507195022 | 65 | 290 | 6.0 | 13.0 | 0.00 | 0.33 | 0.21 | 36 | 1008.5 |
| 20260507194536 | 65 | 319 | 1.0 | 7.0 | 0.00 | 0.33 | 0.21 | 40 | 1008.5 |
| 20260507194023 | 64 | 163 | 2.0 | 9.0 | 0.00 | 0.33 | 0.21 | 38 | 1008.6 |
| 20260507193522 | 64 | 273 | 3.0 | 9.0 | 0.00 | 0.33 | 0.21 | 41 | 1008.7 |
| 20260507193043 | 65 | 286 | 5.0 | 9.0 | 0.00 | 0.33 | 0.21 | 39 | 1008.6 |
| 20260507192521 | 64 | 296 | 3.0 | 8.0 | 0.00 | 0.33 | 0.21 | 41 | 1008.6 |
| 20260507192022 | 63 | 313 | 3.0 | 10.0 | 0.00 | 0.33 | 0.21 | 39 | 1008.7 |
| 20260507191542 | 64 | 246 | 1.0 | 10.0 | 0.00 | 0.33 | 0.21 | 40 | 1008.8 |
| 20260507191022 | 64 | 302 | 3.0 | 10.0 | 0.00 | 0.33 | 0.21 | 42 | 1009.0 |
| 20260507190522 | 64 | 82 | 2.0 | 8.0 | 0.00 | 0.33 | 0.21 | 42 | 1008.9 |
| 20260507190040 | 64 | 0 | 0.0 | 6.0 | 0.00 | 0.33 | 0.21 | 42 | 1008.9 |
| 20260507185523 | 63 | 155 | 1.0 | 6.0 | 0.00 | 0.33 | 0.21 | 40 | 1008.9 |
| 20260507185024 | 62 | 312 | 1.0 | 6.0 | 0.00 | 0.33 | 0.21 | 43 | 1009.1 |
| 20260507184535 | 62 | 243 | 3.0 | 6.0 | 0.00 | 0.33 | 0.21 | 41 | 1009.1 |
| 20260507184024 | 62 | 64 | 1.0 | 5.0 | 0.00 | 0.33 | 0.21 | 41 | 1009.2 |
| 20260507183526 | 63 | 97 | 1.0 | 8.0 | 0.00 | 0.33 | 0.21 | 44 | 1009.3 |
| 20260507183044 | 63 | 53 | 1.0 | 8.0 | 0.00 | 0.33 | 0.21 | 44 | 1009.3 |
| 20260507182522 | 64 | 279 | 2.0 | 8.0 | 0.00 | 0.33 | 0.21 | 42 | 1009.4 |
| 20260507182022 | 63 | 331 | 2.0 | 11.0 | 0.00 | 0.33 | 0.21 | 48 | 1009.4 |
| 20260507181544 | 63 | 305 | 4.0 | 13.0 | 0.00 | 0.33 | 0.21 | 41 | 1009.4 |
| 20260507181022 | 62 | 268 | 5.0 | 13.0 | 0.00 | 0.33 | 0.21 | 43 | 1009.3 |
| 20260507180524 | 63 | 292 | 2.0 | 13.0 | 0.00 | 0.33 | 0.21 | 39 | 1009.4 |
| 20260507180052 | 62 | 300 | 3.0 | 13.0 | 0.00 | 0.33 | 0.21 | 43 | 1009.5 |
| 20260507175525 | 62 | 313 | 3.0 | 10.0 | 0.00 | 0.33 | 0.21 | 45 | 1009.5 |
| 20260507175022 | 62 | 40 | 2.0 | 10.0 | 0.00 | 0.33 | 0.21 | 42 | 1009.6 |
| 20260507174538 | 62 | 313 | 2.0 | 11.0 | 0.00 | 0.33 | 0.21 | 43 | 1009.6 |
| 20260507174025 | 62 | 288 | 3.0 | 11.0 | 0.00 | 0.33 | 0.21 | 39 | 1009.8 |
| 20260507173524 | 62 | 334 | 1.0 | 10.0 | 0.00 | 0.33 | 0.21 | 46 | 1010.0 |
| 20260507173037 | 62 | 285 | 4.0 | 10.0 | 0.00 | 0.33 | 0.21 | 41 | 1010.2 |
| 20260507172524 | 62 | 286 | 2.0 | 10.0 | 0.00 | 0.33 | 0.21 | 47 | 1010.2 |
| 20260507172023 | 62 | 292 | 4.0 | 10.0 | 0.00 | 0.33 | 0.21 | 44 | 1010.2 |
| 20260507171541 | 62 | 300 | 2.0 | 9.0 | 0.00 | 0.33 | 0.21 | 45 | 1010.3 |
| 20260507171022 | 62 | 339 | 1.0 | 10.0 | 0.00 | 0.33 | 0.21 | 45 | 1010.3 |
| 20260507170524 | 61 | 61 | 1.0 | 10.0 | 0.00 | 0.33 | 0.21 | 49 | 1010.4 |
| 20260507170045 | 62 | 281 | 2.0 | 9.0 | 0.00 | 0.33 | 0.21 | 47 | 1010.4 |
| 20260507165522 | 62 | 300 | 3.0 | 8.0 | 0.00 | 0.34 | 0.21 | 50 | 1010.6 |
| 20260507165021 | 61 | 329 | 1.0 | 11.0 | 0.00 | 0.34 | 0.21 | 49 | 1010.4 |
| 20260507164548 | 60 | 300 | 4.0 | 11.0 | 0.00 | 0.34 | 0.21 | 47 | 1010.5 |
| 20260507164022 | 61 | 0 | 4.0 | 11.0 | 0.00 | 0.34 | 0.21 | 48 | 1010.8 |
| 20260507163521 | 61 | 71 | 2.0 | 9.0 | 0.00 | 0.34 | 0.21 | 48 | 1010.8 |
| 20260507163049 | 61 | 69 | 3.0 | 10.0 | 0.00 | 0.34 | 0.21 | 51 | 1010.8 |
| 20260507162521 | 61 | 0 | 2.0 | 10.0 | 0.00 | 0.34 | 0.21 | 55 | 1010.8 |
| 20260507162022 | 60 | 271 | 1.0 | 10.0 | 0.00 | 0.34 | 0.21 | 53 | 1010.9 |
| 20260507161544 | 60 | 299 | 4.0 | 11.0 | 0.00 | 0.34 | 0.21 | 49 | 1010.9 |
| 20260507161022 | 60 | 0 | 4.0 | 11.0 | 0.00 | 0.34 | 0.21 | 56 | 1011.0 |
| 20260507160522 | 59 | 0 | 2.0 | 12.0 | 0.00 | 0.34 | 0.21 | 58 | 1011.0 |
| 20260507160046 | 59 | 299 | 5.0 | 12.0 | 0.00 | 0.34 | 0.21 | 51 | 1011.1 |
| 20260507155522 | 59 | 313 | 4.0 | 10.0 | 0.00 | 0.35 | 0.21 | 50 | 1011.0 |
| 20260507155022 | 60 | 301 | 3.0 | 8.0 | 0.00 | 0.35 | 0.21 | 51 | 1011.2 |
| 20260507154535 | 59 | 310 | 2.0 | 11.0 | 0.00 | 0.35 | 0.21 | 53 | 1011.2 |
| 20260507154023 | 59 | 0 | 1.0 | 11.0 | 0.00 | 0.35 | 0.21 | 54 | 1011.4 |
| 20260507153522 | 59 | 304 | 5.0 | 11.0 | 0.00 | 0.35 | 0.21 | 53 | 1011.4 |
| 20260507153044 | 59 | 275 | 4.0 | 11.0 | 0.00 | 0.35 | 0.21 | 54 | 1011.6 |
| 20260507152522 | 59 | 325 | 3.0 | 10.0 | 0.00 | 0.35 | 0.21 | 57 | 1011.9 |
| 20260507152022 | 59 | 269 | 2.0 | 10.0 | 0.00 | 0.35 | 0.21 | 57 | 1011.8 |
| 20260507151538 | 57 | 0 | 1.0 | 8.0 | 0.00 | 0.35 | 0.21 | 58 | 1011.9 |
| 20260507151021 | 58 | 67 | 1.0 | 8.0 | 0.00 | 0.35 | 0.21 | 61 | 1011.8 |
| 20260507150524 | 58 | 269 | 1.0 | 7.0 | 0.00 | 0.35 | 0.21 | 62 | 1011.9 |
| 20260507150037 | 58 | 281 | 2.0 | 7.0 | 0.00 | 0.35 | 0.21 | 63 | 1012.0 |
| 20260507145521 | 58 | 297 | 2.0 | 9.0 | 0.00 | 0.35 | 0.21 | 60 | 1012.0 |
| 20260507145025 | 57 | 55 | 3.0 | 9.0 | 0.00 | 0.35 | 0.21 | 63 | 1012.0 |
| 20260507144541 | 57 | 317 | 4.0 | 9.0 | 0.00 | 0.35 | 0.21 | 64 | 1012.0 |
| 20260507144025 | 56 | 271 | 3.0 | 9.0 | 0.00 | 0.35 | 0.21 | 66 | 1012.1 |
| 20260507143521 | 55 | 278 | 3.0 | 9.0 | 0.00 | 0.35 | 0.21 | 66 | 1012.2 |
| 20260507143048 | 56 | 261 | 1.0 | 9.0 | 0.00 | 0.35 | 0.21 | 69 | 1012.3 |
| 20260507142523 | 57 | 30 | 2.0 | 9.0 | 0.00 | 0.35 | 0.21 | 71 | 1012.2 |
| 20260507142023 | 56 | 51 | 1.0 | 8.0 | 0.00 | 0.35 | 0.21 | 72 | 1012.3 |
| 20260507141545 | 55 | 307 | 2.0 | 11.0 | 0.00 | 0.35 | 0.21 | 73 | 1012.2 |
| 20260507141027 | 54 | 271 | 2.0 | 11.0 | 0.00 | 0.35 | 0.21 | 74 | 1012.4 |
| 20260507140527 | 54 | 319 | 3.0 | 10.0 | 0.00 | 0.35 | 0.21 | 74 | 1012.3 |
| 20260507140043 | 54 | 0 | 1.0 | 7.0 | 0.00 | 0.35 | 0.21 | 74 | 1012.2 |
| 20260507135524 | 54 | 0 | 1.0 | 4.0 | 0.00 | 0.35 | 0.21 | 75 | 1012.2 |
| 20260507135024 | 54 | 0 | 0.0 | 7.0 | 0.00 | 0.35 | 0.21 | 76 | 1012.3 |
| 20260507134535 | 54 | 94 | 1.0 | 7.0 | 0.00 | 0.35 | 0.21 | 76 | 1012.3 |
| 20260507134021 | 53 | 323 | 2.0 | 7.0 | 0.00 | 0.35 | 0.21 | 79 | 1012.2 |
| 20260507133521 | 53 | 0 | 1.0 | 7.0 | 0.00 | 0.35 | 0.21 | 81 | 1012.3 |
| 20260507133036 | 53 | 294 | 3.0 | 7.0 | 0.00 | 0.35 | 0.21 | 80 | 1012.3 |
| 20260507132520 | 53 | 275 | 1.0 | 5.0 | 0.00 | 0.35 | 0.21 | 82 | 1012.2 |
| 20260507132021 | 53 | 278 | 0.0 | 8.0 | 0.00 | 0.35 | 0.21 | 85 | 1012.1 |
| 20260507131544 | 52 | 278 | 2.0 | 8.0 | 0.00 | 0.35 | 0.21 | 84 | 1012.2 |
| 20260507131024 | 52 | 297 | 0.0 | 7.0 | 0.00 | 0.35 | 0.21 | 85 | 1012.2 |
| 20260507130523 | 52 | 0 | 1.0 | 7.0 | 0.00 | 0.35 | 0.21 | 86 | 1012.2 |
| 20260507130051 | 51 | 294 | 2.0 | 7.0 | 0.00 | 0.35 | 0.21 | 89 | 1012.4 |
| 20260507125522 | 51 | 310 | 2.0 | 7.0 | 0.00 | 0.35 | 0.21 | 90 | 1012.1 |
| 20260507125021 | 51 | 290 | 1.0 | 5.0 | 0.00 | 0.35 | 0.21 | 90 | 1012.1 |
| 20260507124555 | 50 | 290 | 0.0 | 5.0 | 0.00 | 0.35 | 0.21 | 90 | 1012.3 |
| 20260507124021 | 50 | 294 | 1.0 | 5.0 | 0.00 | 0.35 | 0.21 | 90 | 1012.2 |
| 20260507123522 | 50 | 296 | 0.0 | 3.0 | 0.00 | 0.35 | 0.21 | 91 | 1012.2 |
| 20260507123036 | 50 | 0 | 0.0 | 3.0 | 0.00 | 0.35 | 0.21 | 91 | 1012.3 |
| 20260507122520 | 50 | 265 | 0.0 | 4.0 | 0.00 | 0.35 | 0.21 | 91 | 1012.2 |
| 20260507122024 | 50 | 290 | 1.0 | 5.0 | 0.00 | 0.35 | 0.21 | 91 | 1012.2 |
| 20260507121540 | 50 | 313 | 1.0 | 6.0 | 0.00 | 0.35 | 0.21 | 92 | 1012.2 |
| 20260507121024 | 50 | 0 | 2.0 | 6.0 | 0.00 | 0.35 | 0.21 | 92 | 1012.2 |
| 20260507120524 | 50 | 296 | 1.0 | 4.0 | 0.00 | 0.35 | 0.21 | 92 | 1012.3 |
| 20260507120043 | 50 | 275 | 0.0 | 4.0 | 0.00 | 0.35 | 0.21 | 93 | 1012.2 |
| 20260507115523 | 50 | 289 | 1.0 | 4.0 | 0.00 | 0.35 | 0.21 | 93 | 1012.2 |
| 20260507115028 | 50 | 0 | 0.0 | 4.0 | 0.00 | 0.35 | 0.21 | 93 | 1012.2 |
| 20260507114558 | 50 | 294 | 0.0 | 4.0 | 0.00 | 0.35 | 0.21 | 93 | 1012.2 |
| 20260507114024 | 50 | 290 | 2.0 | 4.0 | 0.00 | 0.35 | 0.21 | 93 | 1012.0 |
| 20260507113524 | 50 | 306 | 0.0 | 4.0 | 0.00 | 0.35 | 0.21 | 93 | 1012.1 |
| 20260507113037 | 50 | 285 | 1.0 | 4.0 | 0.00 | 0.35 | 0.21 | 93 | 1011.9 |
| 20260507112524 | 50 | 290 | 1.0 | 5.0 | 0.00 | 0.35 | 0.21 | 93 | 1011.8 |
| 20260507112021 | 50 | 277 | 1.0 | 6.0 | 0.00 | 0.35 | 0.21 | 93 | 1011.9 |
| 20260507111534 | 50 | 290 | 1.0 | 6.0 | 0.00 | 0.35 | 0.21 | 93 | 1011.7 |
| 20260507111023 | 50 | 290 | 2.0 | 4.0 | 0.00 | 0.35 | 0.21 | 93 | 1011.6 |
| 20260507110523 | 49 | 0 | 0.0 | 2.0 | 0.00 | 0.35 | 0.21 | 93 | 1011.5 |
| 20260507110043 | 49 | 0 | 0.0 | 2.0 | 0.00 | 0.35 | 0.21 | 93 | 1011.5 |
| 20260507105524 | 49 | 298 | 0.0 | 3.0 | 0.00 | 0.35 | 0.21 | 93 | 1011.3 |
| 20260507105021 | 49 | 0 | 0.0 | 3.0 | 0.00 | 0.35 | 0.21 | 93 | 1011.4 |
| 20260507104549 | 49 | 0 | 0.0 | 2.0 | 0.00 | 0.35 | 0.21 | 93 | 1011.3 |
| 20260507104026 | 49 | 0 | 0.0 | 2.0 | 0.00 | 0.35 | 0.21 | 93 | 1011.3 |
| 20260507103523 | 49 | 296 | 1.0 | 2.0 | 0.00 | 0.35 | 0.21 | 93 | 1011.3 |
| 20260507103040 | 49 | 290 | 0.0 | 2.0 | 0.00 | 0.35 | 0.21 | 93 | 1011.1 |
| 20260507102524 | 49 | 0 | 0.0 | 2.0 | 0.00 | 0.35 | 0.21 | 93 | 1010.9 |
| 20260507102025 | 49 | 0 | 0.0 | 1.0 | 0.00 | 0.35 | 0.21 | 93 | 1011.0 |
| 20260507101537 | 49 | 0 | 0.0 | 0.0 | 0.00 | 0.35 | 0.21 | 93 | 1010.7 |
| 20260507101023 | 49 | 0 | 0.0 | 0.0 | 0.00 | 0.35 | 0.21 | 93 | 1010.9 |
| 20260507100524 | 49 | 0 | 0.0 | 1.0 | 0.00 | 0.35 | 0.21 | 93 | 1010.9 |
| 20260507100038 | 49 | 0 | 0.0 | 1.0 | 0.00 | 0.35 | 0.21 | 93 | 1010.9 |
| 20260507095522 | 49 | 0 | 0.0 | 1.0 | 0.00 | 0.35 | 0.21 | 93 | 1010.9 |
| 20260507095022 | 49 | 0 | 0.0 | 1.0 | 0.00 | 0.35 | 0.21 | 93 | 1010.8 |
| 20260507094535 | 49 | 0 | 0.0 | 1.0 | 0.00 | 0.35 | 0.21 | 92 | 1010.7 |
| 20260507094022 | 49 | 0 | 0.0 | 1.0 | 0.00 | 0.35 | 0.21 | 93 | 1010.8 |
| 20260507093522 | 49 | 0 | 0.0 | 1.0 | 0.00 | 0.35 | 0.21 | 93 | 1010.8 |
| 20260507093040 | 49 | 0 | 0.0 | 4.0 | 0.00 | 0.35 | 0.21 | 93 | 1010.7 |
| 20260507092522 | 49 | 303 | 0.0 | 4.0 | 0.00 | 0.35 | 0.21 | 93 | 1010.6 |
| 20260507092023 | 49 | 278 | 0.0 | 3.0 | 0.00 | 0.35 | 0.21 | 93 | 1010.7 |
| 20260507091543 | 49 | 0 | 0.0 | 4.0 | 0.00 | 0.35 | 0.21 | 92 | 1010.6 |
| 20260507091024 | 49 | 0 | 0.0 | 4.0 | 0.00 | 0.35 | 0.21 | 92 | 1010.6 |
| 20260507090525 | 49 | 296 | 1.0 | 4.0 | 0.00 | 0.35 | 0.21 | 92 | 1010.5 |
| 20260507090037 | 49 | 294 | 0.0 | 3.0 | 0.00 | 0.35 | 0.21 | 92 | 1010.5 |
| 20260507085524 | 49 | 304 | 0.0 | 3.0 | 0.01 | 0.35 | 0.21 | 92 | 1010.4 |
| 20260507085024 | 49 | 0 | 1.0 | 4.0 | 0.01 | 0.35 | 0.21 | 92 | 1010.4 |
| 20260507084537 | 49 | 290 | 0.0 | 4.0 | 0.01 | 0.35 | 0.21 | 92 | 1010.4 |
| 20260507084025 | 49 | 292 | 0.0 | 4.0 | 0.01 | 0.35 | 0.21 | 92 | 1010.3 |
| 20260507083522 | 49 | 300 | 1.0 | 4.0 | 0.01 | 0.35 | 0.21 | 92 | 1010.4 |
| 20260507083035 | 49 | 304 | 0.0 | 4.0 | 0.01 | 0.35 | 0.21 | 92 | 1010.2 |
| 20260507082524 | 49 | 290 | 1.0 | 4.0 | 0.01 | 0.35 | 0.21 | 92 | 1010.3 |
| 20260507082026 | 50 | 0 | 0.0 | 4.0 | 0.01 | 0.35 | 0.21 | 92 | 1010.4 |
| 20260507081535 | 49 | 0 | 0.0 | 6.0 | 0.01 | 0.35 | 0.21 | 92 | 1010.5 |
| 20260507081022 | 50 | 295 | 0.0 | 7.0 | 0.01 | 0.35 | 0.21 | 92 | 1010.7 |
| 20260507080522 | 50 | 308 | 1.0 | 7.0 | 0.01 | 0.35 | 0.21 | 92 | 1010.5 |
| 20260507080042 | 50 | 296 | 1.0 | 8.0 | 0.01 | 0.35 | 0.21 | 92 | 1010.7 |
| 20260507075524 | 50 | 297 | 1.0 | 8.0 | 0.00 | 0.34 | 0.20 | 92 | 1010.8 |
| 20260507075024 | 50 | 293 | 3.0 | 8.0 | 0.00 | 0.34 | 0.20 | 92 | 1011.1 |
| 20260507074542 | 50 | 303 | 3.0 | 7.0 | 0.00 | 0.34 | 0.20 | 92 | 1011.1 |
| 20260507074023 | 50 | 0 | 1.0 | 7.0 | 0.01 | 0.34 | 0.20 | 92 | 1010.8 |
| 20260507073525 | 50 | 304 | 2.0 | 7.0 | 0.02 | 0.34 | 0.20 | 91 | 1010.8 |
| 20260507073042 | 50 | 320 | 2.0 | 8.0 | 0.02 | 0.34 | 0.20 | 91 | 1010.9 |
| 20260507072525 | 50 | 0 | 2.0 | 9.0 | 0.02 | 0.34 | 0.20 | 91 | 1010.7 |
| 20260507072024 | 50 | 263 | 3.0 | 9.0 | 0.02 | 0.34 | 0.20 | 91 | 1010.9 |
| 20260507071537 | 50 | 309 | 3.0 | 9.0 | 0.03 | 0.34 | 0.20 | 91 | 1010.8 |
| 20260507071021 | 51 | 277 | 2.0 | 9.0 | 0.03 | 0.34 | 0.20 | 91 | 1010.6 |
| 20260507070522 | 51 | 309 | 0.0 | 6.0 | 0.05 | 0.34 | 0.20 | 91 | 1010.6 |
| 20260507070037 | 51 | 316 | 2.0 | 6.0 | 0.05 | 0.34 | 0.20 | 91 | 1010.4 |
| 20260507065521 | 51 | 306 | 1.0 | 7.0 | 0.05 | 0.34 | 0.20 | 91 | 1010.5 |
| 20260507065021 | 51 | 0 | 2.0 | 7.0 | 0.06 | 0.34 | 0.20 | 90 | 1010.4 |
| 20260507064535 | 51 | 308 | 1.0 | 4.0 | 0.12 | 0.34 | 0.20 | 90 | 1010.6 |
| 20260507064023 | 51 | 0 | 1.0 | 7.0 | 0.15 | 0.33 | 0.19 | 90 | 1010.6 |
| 20260507063522 | 51 | 300 | 0.0 | 7.0 | 0.17 | 0.32 | 0.18 | 90 | 1010.4 |
| 20260507063053 | 51 | 277 | 3.0 | 7.0 | 0.17 | 0.32 | 0.18 | 89 | 1011.1 |
| 20260507062524 | 52 | 279 | 2.0 | 7.0 | 0.17 | 0.32 | 0.18 | 89 | 1010.8 |
| 20260507062023 | 52 | 273 | 1.0 | 8.0 | 0.16 | 0.31 | 0.17 | 89 | 1009.9 |
| 20260507061546 | 52 | 314 | 4.0 | 8.0 | 0.16 | 0.31 | 0.17 | 88 | 1010.7 |
| 20260507061023 | 53 | 0 | 0.0 | 3.0 | 0.16 | 0.31 | 0.17 | 88 | 1010.3 |
| 20260507060526 | 53 | 313 | 1.0 | 3.0 | 0.14 | 0.29 | 0.15 | 87 | 1010.8 |
| 20260507060043 | 53 | 291 | 0.0 | 3.0 | 0.14 | 0.29 | 0.15 | 86 | 1010.4 |
| 20260507055524 | 54 | 0 | 0.0 | 3.0 | 0.14 | 0.29 | 0.15 | 86 | 1009.9 |
| 20260507055023 | 54 | 207 | 0.0 | 10.0 | 0.12 | 0.27 | 0.13 | 85 | 1010.3 |
| 20260507054538 | 54 | 297 | 4.0 | 10.0 | 0.06 | 0.21 | 0.07 | 84 | 1011.2 |
| 20260507054024 | 55 | 225 | 3.0 | 10.0 | 0.03 | 0.18 | 0.04 | 84 | 1010.9 |
| 20260507053522 | 55 | 290 | 2.0 | 7.0 | 0.01 | 0.15 | 0.01 | 83 | 1010.4 |
| 20260507053042 | 55 | 296 | 0.0 | 3.0 | 0.01 | 0.15 | 0.01 | 83 | 1009.4 |
| 20260507052523 | 55 | 0 | 0.0 | 4.0 | 0.01 | 0.15 | 0.01 | 83 | 1009.3 |
| 20260507052024 | 55 | 312 | 1.0 | 4.0 | 0.01 | 0.15 | 0.01 | 83 | 1009.9 |
| 20260507051541 | 55 | 302 | 1.0 | 4.0 | 0.01 | 0.15 | 0.01 | 83 | 1009.8 |
| 20260507051025 | 55 | 304 | 2.0 | 4.0 | 0.01 | 0.15 | 0.01 | 83 | 1009.6 |
| 20260507050526 | 55 | 305 | 0.0 | 3.0 | 0.01 | 0.15 | 0.01 | 83 | 1009.6 |
| 20260507050042 | 56 | 302 | 1.0 | 4.0 | 0.01 | 0.15 | 0.01 | 84 | 1009.4 |
| 20260507045525 | 56 | 0 | 0.0 | 4.0 | 0.01 | 0.15 | 0.01 | 84 | 1009.2 |
| 20260507045025 | 56 | 300 | 1.0 | 4.0 | 0.01 | 0.15 | 0.01 | 84 | 1009.3 |
| 20260507044543 | 56 | 305 | 0.0 | 4.0 | 0.01 | 0.15 | 0.01 | 84 | 1009.3 |
| 20260507044025 | 56 | 0 | 0.0 | 4.0 | 0.01 | 0.15 | 0.01 | 84 | 1009.3 |
| 20260507043525 | 56 | 0 | 1.0 | 4.0 | 0.00 | 0.14 | 0.00 | 85 | 1009.6 |
| 20260507043042 | 56 | 0 | 2.0 | 5.0 | 0.00 | 0.14 | 0.00 | 85 | 1009.8 |
| 20260507042524 | 56 | 293 | 2.0 | 5.0 | 0.00 | 0.14 | 0.00 | 85 | 1009.8 |
| 20260507042024 | 56 | 305 | 1.0 | 8.0 | 0.00 | 0.14 | 0.00 | 85 | 1009.7 |
| 20260507041541 | 56 | 283 | 2.0 | 8.0 | 0.00 | 0.14 | 0.00 | 85 | 1009.7 |
| 20260507041026 | 57 | 290 | 3.0 | 8.0 | 0.00 | 0.14 | 0.00 | 85 | 1009.8 |
| 20260507040524 | 57 | 312 | 1.0 | 5.0 | 0.00 | 0.14 | 0.00 | 86 | 1009.6 |
| 20260507040044 | 57 | 296 | 1.0 | 4.0 | 0.00 | 0.14 | 0.00 | 85 | 1009.4 |
| 20260507035526 | 58 | 306 | 0.0 | 6.0 | 0.00 | 0.14 | 0.14 | 85 | 1009.5 |
| 20260507035026 | 58 | 0 | 1.0 | 6.0 | 0.00 | 0.14 | 0.14 | 85 | 1009.5 |
| 20260507034543 | 58 | 278 | 2.0 | 7.0 | 0.01 | 0.14 | 0.14 | 85 | 1009.7 |
| 20260507034026 | 59 | 292 | 1.0 | 7.0 | 0.05 | 0.14 | 0.14 | 84 | 1009.7 |
| 20260507033528 | 59 | 0 | 1.0 | 7.0 | 0.05 | 0.14 | 0.14 | 84 | 1009.4 |
| 20260507033045 | 60 | 281 | 1.0 | 7.0 | 0.05 | 0.14 | 0.14 | 84 | 1009.5 |
| 20260507032524 | 61 | 0 | 1.0 | 7.0 | 0.06 | 0.14 | 0.14 | 85 | 1009.4 |
| 20260507032024 | 63 | 319 | 2.0 | 7.0 | 0.06 | 0.14 | 0.14 | 87 | 1009.3 |
| 20260507031540 | 64 | 331 | 1.0 | 5.0 | 0.07 | 0.14 | 0.14 | 89 | 1009.1 |
| 20260507031026 | 64 | 93 | 0.0 | 1.0 | 0.09 | 0.14 | 0.14 | 89 | 1008.9 |
| 20260507030526 | 64 | 0 | 0.0 | 1.0 | 0.11 | 0.14 | 0.14 | 89 | 1009.0 |
| 20260507030043 | 64 | 0 | 0.0 | 4.0 | 0.12 | 0.14 | 0.14 | 89 | 1008.6 |
| 20260507025525 | 65 | 0 | 0.0 | 4.0 | 0.12 | 0.14 | 0.14 | 88 | 1008.8 |
| 20260507025025 | 65 | 157 | 0.0 | 4.0 | 0.12 | 0.14 | 0.14 | 88 | 1008.8 |
| 20260507024538 | 65 | 294 | 0.0 | 4.0 | 0.11 | 0.13 | 0.13 | 87 | 1008.9 |
| 20260507024024 | 65 | 190 | 0.0 | 3.0 | 0.07 | 0.09 | 0.09 | 87 | 1008.8 |
| 20260507023526 | 65 | 0 | 0.0 | 6.0 | 0.07 | 0.09 | 0.09 | 86 | 1008.6 |
| 20260507023036 | 66 | 0 | 0.0 | 6.0 | 0.07 | 0.09 | 0.09 | 85 | 1008.9 |
| 20260507022525 | 66 | 0 | 0.0 | 3.0 | 0.06 | 0.08 | 0.08 | 85 | 1009.0 |
| 20260507022026 | 66 | 203 | 1.0 | 7.0 | 0.06 | 0.08 | 0.08 | 84 | 1008.8 |
| 20260507021541 | 67 | 0 | 1.0 | 7.0 | 0.05 | 0.07 | 0.07 | 83 | 1008.7 |
| 20260507021248 | 67 | 0 | 1.0 | 8.0 | 0.03 | 0.05 | 0.05 | 82 | 1008.8 |
| 20260507020526 | 67 | 159 | 2.0 | 9.0 | 0.01 | 0.03 | 0.03 | 81 | 1008.9 |
| 20260507020045 | 67 | 153 | 3.0 | 9.0 | 0.00 | 0.02 | 0.02 | 81 | 1008.9 |
| 20260507015521 | 67 | 214 | 3.0 | 7.0 | 0.00 | 0.02 | 0.02 | 81 | 1009.0 |
| 20260507015021 | 67 | 191 | 2.0 | 6.0 | 0.00 | 0.02 | 0.02 | 80 | 1008.8 |
| 20260507014547 | 67 | 155 | 3.0 | 7.0 | 0.00 | 0.02 | 0.02 | 80 | 1008.9 |
| 20260507014021 | 67 | 184 | 3.0 | 7.0 | 0.00 | 0.02 | 0.02 | 80 | 1008.7 |
| 20260507013521 | 67 | 148 | 3.0 | 8.0 | 0.00 | 0.02 | 0.02 | 80 | 1008.5 |
| 20260507013049 | 67 | 212 | 3.0 | 8.0 | 0.00 | 0.02 | 0.02 | 80 | 1008.5 |